Weather History for Ardmore, OK

Change the Weather History Date:

Tuesday, August 14, 2012

  Actual Average Record
Temperature  
Mean Temperature 78 °F -  
Max Temperature 96 °F 92 °F 104 °F (2006)
Min Temperature 60 °F 70 °F 60 °F (2012)
Cooling Degree Days 13    
Growing Degree Days 28 (Base 50)    
Moisture  
Dew Point 59 °F    
Average Humidity 72    
Maximum Humidity 94    
Minimum Humidity 32    
Precipitation  
Precipitation 0.02 in - - ()
Sea Level Pressure  
Sea Level Pressure 29.96 in    
Wind  
Wind Speed 1 mph (SE)    
Max Wind Speed 10 mph    
Max Gust Speed 16 mph    
Visibility 9 miles    
Events      
Averages and records for this station are not official NWS values.
T = Trace of Precipitation, MM = Missing Value Source: NWS Daily Summary

Daily Weather History Graph

Daily Weather History Graph

Search for Another Location

Airport:

Trip Planner

Search our weather history database for the weather conditions in past years. The results will help you decide how hot, cold, wet, or windy it might be!

Date:

Astronomy

Aug. 14, 2012 Rise Set
Actual Time 6:48 AM CDT 8:15 PM CDT
Civil Twilight 6:22 AM CDT 8:42 PM CDT
Nautical Twilight 5:50 AM CDT 9:14 PM CDT
Astronomical Twilight 5:16 AM CDT 9:47 PM CDT
Moon 3:52 AM CDT (8/14) 6:08 PM CDT (8/14)
Length of Visible Light 14h 20m
Length of Day
13h 27m
Waning Crescent, 9% of the Moon is Illuminated
Aug 14
Waning Crescent
Aug 17
New
Aug 24
First Quarter
Aug 31
Full
Sep 8
Last Quarter

Hourly Weather History & Observations

Time (CDT) Temp. Heat Index Dew Point Humidity Pressure Visibility Wind Dir Wind Speed Gust Speed Precip Events Conditions
12:15 AM 69.8 °F - 57.2 °F 64% 29.99 in 10.0 mi Calm Calm - N/A   Clear
12:35 AM 68.0 °F - 55.4 °F 64% 29.99 in 10.0 mi Calm Calm - N/A   Clear
12:55 AM 68.0 °F - 55.4 °F 64% 29.99 in 10.0 mi Calm Calm - N/A   Clear
1:15 AM 69.8 °F - 55.4 °F 60% 29.98 in 10.0 mi Calm Calm - N/A   Clear
1:35 AM 68.0 °F - 53.6 °F 60% 29.98 in 10.0 mi Calm Calm - N/A   Clear
1:55 AM 69.8 °F - 53.6 °F 56% 29.98 in 10.0 mi East 3.5 mph - N/A   Clear
2:15 AM 68.0 °F - 59.0 °F 73% 29.98 in 10.0 mi Calm Calm - N/A   Clear
2:35 AM 68.0 °F - 55.4 °F 64% 29.97 in 10.0 mi ENE 6.9 mph - N/A   Clear
2:55 AM 68.0 °F - 57.2 °F 68% 29.97 in 10.0 mi Calm Calm - N/A   Clear
3:15 AM 66.2 °F - 57.2 °F 73% 29.97 in 10.0 mi SW 4.6 mph - N/A   Clear
3:35 AM 64.4 °F - 59.0 °F 83% 29.97 in 10.0 mi Calm Calm - N/A   Clear
3:55 AM 64.4 °F - 57.2 °F 77% 29.97 in 10.0 mi SSW 3.5 mph - N/A   Clear
4:15 AM 64.4 °F - 59.0 °F 83% 29.97 in 10.0 mi Calm Calm - N/A   Clear
4:35 AM 60.8 °F - 55.4 °F 82% 29.97 in 5.0 mi Calm Calm - N/A   Haze
4:55 AM 64.4 °F - 57.2 °F 77% 29.96 in 4.0 mi Calm Calm - N/A   Haze
5:15 AM 62.6 °F - 59.0 °F 88% 29.97 in 10.0 mi Calm Calm - N/A   Clear
5:35 AM 62.6 °F - 57.2 °F 82% 29.97 in 10.0 mi Calm Calm - N/A   Clear
5:55 AM 60.8 °F - 57.2 °F 88% 29.97 in 7.0 mi Calm Calm - N/A   Clear
6:15 AM 62.6 °F - 57.2 °F 82% 29.98 in 10.0 mi Calm Calm - N/A   Clear
6:35 AM 60.8 °F - 59.0 °F 94% 29.99 in 10.0 mi Calm Calm - N/A   Clear
1:55 PM 96.8 °F 98.0 °F 62.6 °F 32% 29.91 in 10.0 mi SSE 8.1 mph 16.1 mph N/A   Clear
2:55 PM 96.8 °F 98.0 °F 62.6 °F 32% 29.88 in 10.0 mi SE 10.4 mph 16.1 mph N/A   Clear
6:55 PM 77.0 °F - 75.2 °F 94% 29.85 in 10.0 mi SE 6.9 mph - N/A   Scattered Clouds
11:55 PM 73.4 °F - 71.6 °F 94% 29.90 in 10.0 mi East 4.6 mph - 0.02 in   Scattered Clouds